COSMOS 1275 DEB

Satellite information

Favourite Embed

Satellite Type and Status

DEBRISIN ORBIT

Key statistics

Satellite COSMOS 1275 DEB at a glance.

Uptime

16205

Days in orbit

Revolutions

≈ 14.0

Per day

Orbit

LEO

Low Earth Orbit

Inclination

83.0

Latest

Satellite identification and parameters

Extended collection of information and parameters for COSMOS 1275 DEB.

Object identification

Identified? True

Debris? True

Object name: COSMOS 1275 DEB

International designator: 1981-053Z

Object number (NORAD): 12669

Object ID (CCSDS): 12669

Country: COMMONWEALTH OF INDEPENDENT STATES (CIS)

Current information (Y/N): Y

RCS size: SMALL

Orbital parameters

Period: 102.607 minutes

Inclination: 83.0024 deg

SMA: 7260.139 km

Apoapsis: 936.706 km

Periapsis: 827.302 km

RAAN: 0.27 deg

Eccentricy: 0.00753461

Argument of periapsis: 151.0449 deg

Mean anomaly: 24.0882 deg

Mean motion: 14.03412584 rev/day

Mean motion (dot): 0.00003846 rev/day2

B* drag term: 0.0023885714 1/REarth

Two-line elements (TLE)

Creation date: Oct. 16, 2025, 2:37 a.m.

Reference frame: TEME

Reference center: EARTH

Epoch: Oct. 15, 2025, 10:21 p.m. UTC

TLE line 0: 0 COSMOS 1275 DEB

TLE line 1: 1 12669U 81053Z 25288.93191214 .00003846 00000-0 23886-2 0 9996

TLE line 2: 2 12669 83.0024 0.2700 0075346 151.0449 24.0882 14.03412584230439

Live tracking on map

Real-time ground track for satellite COSMOS 1275 DEB.

In-orbit conjunctions

A list of the most updated potential collisions computed for object COSMOS 1275 DEB.

Target Orbit TCA Probability of collision Miss distance Type
METEOR 2-3 LEO 2024-11-30 06:09:56 0.0005077323 131.0 (m) PAYLOAD
METEOR 2-11 DEB LEO 2024-09-27 11:45:25 0.0005174199 324.0 (m) DEBRIS

Associated space launch

Navigation satellite providing location information for the Tsiklon-B navigation system

COSMOS 1275 DEB was lifted into orbit during the mission ‘Kosmos-3M | Parus 27’, on board a Kosmos-3M space rocket.

The launch took place on June 4, 1981, 3:41 p.m. from 132/2.

For more information about the launch, click the button.

Launch to space Kosmos-3M | Parus 27
Kosmos-3M | Parus 27

Agency: N/A

Status: Launch Successful

Launch date: June 4, 1981, 3:41 p.m. UTC

Rocket: Kosmos-3M

Launch pad: 132/2

Location: Plesetsk Cosmodrome, Russian Federation

...

Latest news about this satellite

There are no fresh news available about this satellite. Check back as we update our databases every day.


Newsletter sign-up

Weekly statistics, charts and insights to help you stay on top of the space industry.